Theta_e
325 318 315 316 317 316 317 318 316 315 322 327 330 332 335 334 334 333 333 333 333 333 336 334 334 334 331 333 332 333 329 330 333 334 332 332 333 331 330 328 327 327 326
320 318 315 313 312 312 312 315 316 319 320 322 326 329 332 333 334 334 333 333 333 336 337 337 335 333 333 332 331 331 331 329 332 331 329 331 332 332 329 326 325 326 324
319 317 314 310 306 305 305 307 309 314 319 320 322 323 327 329 332 334 334 333 332 335 336 337 334 333 331 333 330 330 330 329 330 330 330 330 331 331 328 324 326 324 323
319 315 314 308 304 304 305 307 309 312 316 318 319 321 322 324 327 330 333 333 333 334 335 336 335 332 331 331 332 330 330 329 329 328 329 328 331 331 329 327 325 324 322
317 314 312 305 304 304 304 305 306 307 309 311 314 317 318 320 319 325 328 331 332 332 333 335 335 333 332 330 332 329 330 329 327 326 327 326 328 330 328 326 325 323 321
316 314 309 304 303 303 304 304 303 303 305 307 311 313 315 317 318 318 324 327 329 330 331 332 333 332 331 331 331 330 330 328 327 326 324 326 328 329 326 325 323 322 318
314 311 308 305 304 304 304 303 302 302 303 306 308 309 308 312 316 318 319 319 326 329 329 329 331 330 332 331 331 330 329 328 327 326 326 327 327 329 326 325 323 320 318
313 310 308 305 305 304 303 303 303 303 303 304 305 305 303 305 311 318 319 320 323 326 327 327 328 329 329 330 330 330 329 328 327 327 327 326 328 328 327 324 322 317 322
311 309 308 306 305 304 303 303 303 303 303 303 302 301 299 299 302 310 316 318 321 323 325 327 325 327 327 328 330 330 330 329 325 328 327 327 328 327 326 324 318 321 323
311 311 309 307 306 305 304 304 303 304 303 303 302 301 300 299 299 301 308 315 316 319 321 322 323 325 327 328 329 330 330 327 328 328 327 328 327 328 326 320 319 322 323
312 311 310 308 307 306 305 304 304 304 303 303 302 301 300 300 299 300 306 309 311 315 318 322 321 324 328 327 328 328 330 327 328 328 326 327 327 327 322 319 322 323 324
312 311 310 309 308 307 306 305 304 304 303 302 302 300 300 300 301 301 303 307 314 316 317 321 322 325 326 326 326 327 326 326 327 325 325 324 324 323 320 321 323 324 325
312 312 312 311 309 307 306 305 305 304 303 302 301 300 300 300 301 302 304 308 313 315 317 319 321 325 325 322 323 323 325 325 324 323 323 322 322 320 320 323 324 325 324
311 311 311 311 308 307 306 305 304 303 302 301 300 300 299 300 302 303 304 308 312 314 317 318 321 324 325 322 319 322 321 321 322 319 319 317 318 319 319 323 324 325 324
310 310 309 309 308 307 306 305 304 302 301 300 300 299 300 302 303 304 305 308 311 313 316 319 319 323 323 321 320 322 322 321 321 320 319 315 316 316 320 322 324 325 324
309 309 308 308 307 306 305 304 302 301 300 299 299 300 303 304 304 304 306 308 310 312 316 319 319 318 320 321 320 320 321 321 321 319 316 315 317 317 321 323 324 324 324
309 309 308 308 307 306 305 302 301 300 299 301 302 303 303 303 304 305 307 307 310 312 315 318 320 319 318 319 320 321 321 321 320 319 317 318 317 319 321 321 322 324 324
309 308 308 307 306 304 301 300 300 299 300 302 302 302 303 303 304 305 306 307 309 311 314 318 319 319 318 319 319 321 320 320 319 319 318 318 320 320 321 322 324 324 322
308 307 306 305 303 301 300 299 299 299 301 302 301 301 302 303 304 304 305 307 310 312 313 315 318 318 318 318 319 319 319 319 319 319 318 319 320 321 322 323 323 321 320
307 305 304 302 301 300 299 298 298 299 300 301 301 301 301 302 303 305 307 310 311 312 313 315 317 318 319 319 318 318 318 318 319 319 319 319 319 320 319 321 320 320 319
304 303 302 300 300 299 298 297 298 300 301 301 301 301 302 303 303 304 307 310 312 312 315 315 317 317 319 317 313 309 309 314 314 315 316 316 315 314 313 314 316 316 316
303 302 301 300 299 298 297 297 300 300 300 301 301 302 302 302 303 304 307 310 312 314 313 317 316 315 314 316 313 311 311 307 307 309 314 313 311 311 311 311 311 312 313
301 301 300 299 299 297 297 298 300 300 300 301 302 303 303 304 304 305 308 309 310 313 311 316 316 316 315 313 314 313 314 310 304 303 307 310 310 311 310 310 310 311 311
301 300 299 299 297 297 297 299 299 299 300 301 301 302 304 304 305 306 308 309 310 313 310 315 316 316 314 313 313 313 312 309 306 305 302 302 305 308 306 307 308 308 308
300 300 299 298 296 296 298 299 299 299 300 301 301 302 303 304 305 306 307 308 310 312 315 316 315 315 315 314 313 310 310 309 307 306 304 301 303 303 304 305 306 307 306
299 299 298 296 296 297 299 299 299 299 299 300 300 300 301 303 305 306 307 308 310 310 314 316 315 315 315 315 313 312 311 310 308 306 304 303 300 301 302 304 305 305 306
Wind_Speed
14 11 7 5 2 0 3 4 5 5 6 3 3 7 11 5 5 7 6 7 9 10 10 10 10 11 12 12 10 14 13 10 13 13 12 14 17 17 18 16 15 15 13
18 12 7 4 1 1 3 4 5 6 6 7 2 5 7 9 7 6 7 8 9 11 12 12 11 13 14 14 13 14 13 14 16 15 14 13 18 19 18 17 13 13 12
17 12 7 2 2 2 2 3 4 5 6 7 8 6 4 7 9 10 7 8 10 11 12 14 14 13 14 15 14 15 15 17 18 16 16 17 17 16 13 11 12 9 10
15 11 6 3 2 1 2 3 4 5 6 7 7 8 8 6 7 10 10 8 9 10 11 13 15 15 15 16 15 15 19 19 20 17 17 18 18 15 13 13 12 12 9
14 9 4 3 2 1 1 2 4 5 6 7 7 8 8 8 8 9 9 9 9 10 11 13 13 14 16 16 16 14 19 21 22 20 19 20 18 16 15 14 13 11 10
14 9 5 3 2 1 1 2 4 6 6 6 7 7 7 8 9 9 10 9 10 9 9 10 13 13 15 18 18 16 19 21 23 22 23 21 20 17 15 15 16 14 9
15 10 6 4 3 1 0 2 3 5 6 7 7 8 8 9 10 10 9 10 12 10 10 11 9 12 14 18 20 20 21 23 24 25 25 24 21 18 17 16 15 12 11
11 9 6 5 4 2 1 0 2 4 5 7 8 9 9 10 10 9 9 8 10 12 11 11 13 12 13 17 20 22 22 25 27 28 26 24 23 20 18 16 14 13 11
10 8 6 5 5 3 3 2 2 4 5 7 8 10 11 11 10 10 9 8 9 11 11 11 14 12 14 16 20 21 24 31 29 32 29 27 24 21 19 17 15 14 11
11 8 7 6 6 5 4 4 5 5 6 8 9 12 11 11 12 12 13 13 12 12 11 10 14 13 11 15 17 21 26 32 30 30 30 30 26 21 18 17 16 13 10
14 11 9 8 7 6 5 6 7 7 8 9 10 11 11 13 12 11 12 13 13 13 12 9 12 13 14 13 14 24 30 33 28 23 25 24 20 18 17 16 16 12 9
15 14 13 11 10 8 8 8 9 9 10 10 11 11 12 12 12 12 12 11 10 9 12 9 12 11 17 16 19 23 32 31 30 26 20 18 15 16 17 15 14 10 13
16 14 15 15 14 12 11 9 9 10 10 10 11 11 11 12 11 11 10 10 9 9 8 10 13 17 20 26 29 30 33 29 28 25 19 14 14 15 13 13 12 12 14
14 13 13 16 16 15 12 11 10 10 10 11 11 11 11 11 10 10 10 7 8 8 6 8 8 17 23 27 26 28 33 34 33 28 17 9 13 15 16 13 12 13 17
13 13 13 15 16 15 12 10 9 9 10 11 12 11 10 10 10 10 8 5 8 10 6 8 14 18 24 28 28 29 28 30 29 25 23 21 19 15 17 16 15 14 20
14 13 13 15 15 13 10 10 9 9 10 11 11 10 8 8 7 10 5 5 9 10 8 8 17 18 23 29 27 27 23 26 24 26 25 20 17 19 17 18 16 18 21
17 14 13 13 13 11 9 8 8 9 9 8 8 7 7 6 8 7 6 6 8 7 8 6 15 19 22 25 28 23 25 25 27 28 24 22 21 20 18 19 20 20 21
16 15 13 11 10 8 7 7 7 7 8 8 7 7 6 8 5 5 6 7 10 8 6 6 14 20 22 25 26 25 25 28 26 29 26 22 18 15 13 14 22 25 23
17 15 12 11 8 6 5 5 6 6 6 6 6 8 6 6 4 5 6 6 6 7 6 6 10 20 26 23 23 22 25 24 27 28 26 24 20 17 18 19 28 27 22
15 13 10 9 7 4 3 4 6 5 7 3 5 6 5 5 5 6 7 6 7 6 6 8 11 15 23 28 24 21 25 22 28 27 27 25 24 24 23 25 29 26 20
14 13 11 9 6 4 3 4 3 4 5 5 4 5 4 5 5 7 9 7 7 6 7 8 9 19 21 34 27 24 26 30 27 30 28 24 23 21 17 18 18 17 18
15 12 10 7 5 2 3 3 2 3 1 3 5 3 4 5 6 8 8 8 8 8 7 8 11 18 14 34 16 17 4 14 23 23 26 22 20 18 15 14 13 14 13
13 12 9 6 3 1 3 3 2 1 1 1 6 5 6 5 4 6 5 5 9 10 4 10 15 19 11 21 25 7 4 3 7 18 20 19 17 14 13 14 14 13 10
12 11 9 6 3 2 1 2 0 1 1 1 7 7 4 5 4 5 3 5 9 11 5 8 16 24 27 17 25 17 13 16 4 3 14 16 19 17 14 14 14 12 10
13 12 9 6 5 3 1 0 1 2 1 1 2 4 6 5 5 5 5 6 7 8 10 13 15 18 22 19 24 17 25 19 16 5 3 3 15 11 11 11 11 10 8
13 12 9 8 6 4 3 2 1 2 3 2 2 2 4 5 4 4 5 7 5 6 8 8 15 16 22 18 26 26 26 10 11 7 3 6 8 4 7 9 8 7 6
Wind_Direction
185 173 172 174 167 359 355 355 346 341 1 3 329 328 6 334 301 298 289 268 253 244 240 239 228 218 212 206 197 185 189 176 165 160 152 142 129 126 122 120 119 109 102
167 166 170 176 172 348 356 357 356 1 360 0 301 308 336 355 338 303 279 279 271 257 250 241 238 227 215 211 198 193 200 192 185 167 162 152 136 128 125 118 109 105 97
164 163 170 205 285 302 319 338 350 360 5 6 359 326 295 303 337 351 300 273 272 268 262 250 242 233 225 222 215 205 200 187 184 180 170 156 151 140 140 146 132 127 122
165 165 178 224 260 308 9 8 5 9 7 5 360 355 349 315 277 320 346 305 283 272 265 260 249 242 227 232 225 211 203 191 185 182 179 169 156 141 144 141 132 135 135
170 172 186 207 198 158 40 6 4 2 358 356 353 348 344 339 316 265 289 327 304 287 271 264 256 244 235 233 228 212 203 193 188 184 177 174 166 153 148 142 139 139 157
173 177 187 187 181 159 33 3 360 355 352 350 348 346 342 335 328 314 284 284 321 303 288 268 263 248 237 230 223 214 200 195 184 180 172 168 162 157 156 147 146 162 153
175 178 182 182 180 172 302 16 9 5 359 354 349 341 335 330 328 324 308 265 273 297 299 281 270 260 246 234 225 214 200 194 188 180 174 169 164 158 153 152 147 147 143
188 182 184 191 193 202 219 13 356 360 356 349 350 340 331 321 319 324 320 298 280 288 281 280 280 272 256 240 233 217 204 194 189 184 179 174 167 153 155 154 151 148 146
193 197 200 213 209 207 235 253 293 336 337 333 330 327 323 314 300 291 290 284 294 295 291 279 285 282 256 237 231 216 201 194 192 190 186 175 163 158 156 156 152 150 150
199 210 223 226 222 227 249 265 276 307 306 315 319 323 320 313 307 290 281 275 282 286 271 261 266 284 231 234 225 207 202 190 188 194 185 175 163 163 154 154 152 154 154
205 214 221 226 228 234 257 267 271 287 291 302 309 313 311 311 305 295 282 277 278 273 269 264 255 273 213 219 217 200 195 189 189 188 189 175 161 151 154 155 153 154 154
210 221 226 230 234 241 256 260 272 279 287 300 306 307 311 309 305 304 287 276 275 281 264 253 263 239 195 178 164 180 172 167 166 159 161 157 146 157 152 156 151 151 150
220 228 230 234 233 237 244 255 272 276 286 296 300 304 309 306 304 304 297 270 270 273 278 248 253 207 184 158 150 148 153 151 145 138 144 139 146 145 149 162 159 153 148
220 229 232 226 228 233 240 255 271 275 286 295 300 307 310 307 305 304 305 283 275 289 274 263 234 205 195 197 176 157 158 158 161 170 182 176 165 160 160 173 178 172 155
217 221 217 218 223 228 239 256 272 277 288 298 300 305 303 306 304 302 296 280 267 285 280 244 222 208 181 181 179 173 168 167 163 161 165 170 174 175 176 183 195 177 150
208 204 208 212 216 224 240 263 274 286 296 298 302 302 303 308 306 312 284 275 255 279 298 249 215 195 183 180 174 174 172 177 176 169 163 162 172 178 181 201 198 172 144
199 204 206 201 209 220 245 263 281 294 300 304 309 308 303 303 306 298 301 269 283 288 294 244 215 190 178 169 172 164 176 169 166 159 160 170 180 174 197 213 212 168 139
196 194 191 199 208 227 249 271 289 299 295 294 300 318 315 314 311 299 295 264 271 299 317 260 216 190 174 162 166 170 166 168 169 163 166 167 175 169 197 190 178 144 129
187 184 190 198 209 226 257 287 298 297 304 305 300 314 315 327 342 315 274 262 283 303 302 298 231 192 171 165 160 166 173 165 149 159 156 152 136 132 136 161 132 127 123
180 181 186 194 206 220 270 295 298 307 326 335 336 321 320 320 316 299 302 320 324 330 304 308 248 187 169 157 146 149 156 150 150 144 136 125 118 115 109 114 111 114 111
176 179 186 196 200 230 277 301 301 346 34 25 354 353 329 314 299 289 325 341 0 303 319 279 235 173 155 144 121 98 91 126 126 126 124 123 121 117 121 116 127 126 125
180 182 188 195 203 236 302 309 317 337 340 347 336 338 344 319 310 291 333 354 12 355 20 200 156 166 165 149 144 130 102 75 89 113 127 128 118 120 115 113 115 120 126
187 190 194 191 204 242 300 294 288 297 210 321 349 345 357 2 310 321 343 352 15 24 3 194 188 165 166 138 146 124 129 118 108 61 105 119 125 125 115 110 112 118 131
194 192 191 184 193 223 263 263 239 85 141 19 338 337 354 348 350 4 24 12 31 36 36 125 165 163 150 140 118 95 110 135 107 113 71 108 129 127 128 123 118 120 114
192 191 182 180 182 199 213 167 165 198 196 299 347 342 348 6 22 27 43 39 26 48 73 175 164 138 142 112 113 109 111 109 109 104 108 118 101 114 126 124 124 124 110
181 183 179 179 188 185 178 169 218 210 223 246 277 314 335 357 7 39 43 64 10 48 67 149 158 171 161 151 147 142 148 148 144 126 110 87 101 106 137 141 143 134 126